Weather History for Fargo, ND

Change the Weather History Date:

Sunday, April 8, 2012

  Actual Average Record
Temperature  
Mean Temperature 45 °F 40 °F  
Max Temperature 60 °F 51 °F 86 °F (1887)
Min Temperature 30 °F 30 °F 6 °F (1942)
Degree Days  
Heating Degree Days 20 25  
Month to date heating degree days 113 214  
Since 1 July heating degree days 6264 8044  
Cooling Degree Days 0 0  
Month to date cooling degree days 0 0  
Year to date cooling degree days 6 0  
Moisture  
Dew Point 20 °F    
Average Humidity 43    
Maximum Humidity 69    
Minimum Humidity 17    
Precipitation  
Precipitation 0.00 in 0.04 in 2.10 in (1904)
Month to date precipitation T 0.32  
Year to date precipitation 2.31 2.93  
Snow  
Snow 0.00 in 0.10 in 13.20 in (1904)
Month to date snowfall 0.0 1.1  
Since 1 July snowfall 27.0 48.2  
Snow Depth 0.00 in    
Sea Level Pressure  
Sea Level Pressure 30.13 in    
Wind  
Wind Speed 16 mph (West)    
Max Wind Speed 33 mph    
Max Gust Speed 40 mph    
Visibility 10 miles    
Events      
T = Trace of Precipitation, MM = Missing Value Source: NWS Daily Summary

Daily Weather History Graph

Daily Weather History Graph

Search for Another Location

Airport:

Trip Planner

Search our weather history database for the weather conditions in past years. The results will help you decide how hot, cold, wet, or windy it might be!

Date:

Astronomy

Apr. 08, 2012 Rise Set
Actual Time 6:51 AM CDT 8:06 PM CDT
Civil Twilight 6:20 AM CDT 8:38 PM CDT
Nautical Twilight 5:42 AM CDT 9:16 PM CDT
Astronomical Twilight 5:02 AM CDT 9:56 PM CDT
Moon 11:08 PM CDT (4/8) 7:38 AM CDT (4/8)
Length of Visible Light 14h 17m
Length of Day
13h 15m
Waning Gibbous, 95% of the Moon is Illuminated
Apr 8
Waning Gibbous
Apr 13
Last Quarter
Apr 21
New
Apr 29
First Quarter
May 5
Full

Hourly Weather History & Observations

Time (CDT) Temp. Windchill Dew Point Humidity Pressure Visibility Wind Dir Wind Speed Gust Speed Precip Events Conditions
12:53 AM 39.0 °F 32.3 °F 19.9 °F 46% 30.16 in 10.0 mi SW 10.4 mph - N/A   Mostly Cloudy
1:53 AM 39.9 °F 32.9 °F 19.9 °F 45% 30.16 in 10.0 mi WSW 11.5 mph - N/A   Mostly Cloudy
2:53 AM 39.9 °F 33.4 °F 21.0 °F 47% 30.14 in 10.0 mi WSW 10.4 mph - N/A   Overcast
3:53 AM 39.0 °F 31.8 °F 21.0 °F 49% 30.16 in 10.0 mi WSW 11.5 mph - N/A   Overcast
4:53 AM 34.0 °F 27.2 °F 21.0 °F 59% 30.17 in 10.0 mi WSW 8.1 mph - N/A   Clear
5:53 AM 33.1 °F 25.5 °F 21.9 °F 64% 30.17 in 10.0 mi SW 9.2 mph - N/A   Clear
6:53 AM 30.9 °F 23.5 °F 21.0 °F 67% 30.17 in 10.0 mi SW 8.1 mph - N/A   Clear
7:53 AM 35.1 °F 28.6 °F 24.1 °F 64% 30.17 in 10.0 mi SSW 8.1 mph - N/A   Clear
8:53 AM 41.0 °F 36.4 °F 27.0 °F 57% 30.17 in 10.0 mi WSW 6.9 mph - N/A   Clear
9:53 AM 48.9 °F - 28.9 °F 46% 30.17 in 10.0 mi West 13.8 mph 20.7 mph N/A   Clear
10:53 AM 52.0 °F - 28.9 °F 41% 30.16 in 10.0 mi WNW 18.4 mph 23.0 mph N/A   Partly Cloudy
11:53 AM 55.9 °F - 25.0 °F 30% 30.14 in 10.0 mi West 23.0 mph 31.1 mph N/A   Clear
12:53 PM 57.0 °F - 19.0 °F 23% 30.12 in 10.0 mi WNW 26.5 mph 39.1 mph N/A   Overcast
1:53 PM 59.0 °F - 18.0 °F 20% 30.11 in 10.0 mi West 31.1 mph 38.0 mph N/A   Mostly Cloudy
2:53 PM 55.4 °F - 17.6 °F 23% 30.08 in 10.0 mi WNW 23.0 mph 35.7 mph N/A   Mostly Cloudy
3:53 PM 57.0 °F - 17.1 °F 21% 30.09 in 10.0 mi WNW 25.3 mph 40.3 mph N/A   Partly Cloudy
4:53 PM 57.0 °F - 12.9 °F 18% 30.09 in 10.0 mi WNW 27.6 mph 40.3 mph N/A   Clear
5:53 PM 55.9 °F - 15.1 °F 20% 30.09 in 10.0 mi WNW 24.2 mph 32.2 mph N/A   Partly Cloudy
6:53 PM 54.0 °F - 16.0 °F 22% 30.09 in 10.0 mi WNW 19.6 mph 28.8 mph N/A   Scattered Clouds
7:53 PM 52.0 °F - 18.0 °F 26% 30.09 in 10.0 mi NW 16.1 mph - N/A   Mostly Cloudy
8:53 PM 48.0 °F - 19.0 °F 32% 30.11 in 10.0 mi NW 13.8 mph - N/A   Clear
9:53 PM 45.0 °F 38.2 °F 19.0 °F 36% 30.13 in 10.0 mi NW 15.0 mph - N/A   Clear
10:53 PM 43.0 °F 36.4 °F 17.1 °F 35% 30.14 in 10.0 mi NW 12.7 mph - N/A   Partly Cloudy
11:53 PM 41.0 °F 32.5 °F 18.0 °F 40% 30.15 in 10.0 mi NW 17.3 mph 23.0 mph N/A   Clear